• Em Portugal
  • Lista de países
  • Para 7 dias
  • Temperatura da água
  • Mapas de satélite
  • Mapa do tempo
  • Widgets de tempo
  • user-avatar
    Iniciar Sessão

    Previsão horária em Katmandu

    Hoje, 23 Outubro, Segunda-feira

    Tempo Temperatura Precipitação Vento Pressão Humidade
    00:00 +18°C° 0,4 mm 1 m/s 650 mmHg 84%
    01:00 +18°C° 0,6 mm 1 m/s 650 mmHg 82%
    02:00 +18°C° 0,6 mm 1 m/s 650 mmHg 80%
    03:00 +16°C° 0,6 mm 1 m/s 649 mmHg 78%
    04:00 +16°C° 0,2 mm 1 m/s 650 mmHg 76%
    05:00 +16°C° 0,2 mm 2 m/s 650 mmHg 74%
    06:00 +16°C° 0,2 mm 2 m/s 650 mmHg 71%
    07:00 +19°C° 0 mm 1 m/s 651 mmHg 66%
    08:00 +21°C° 0 mm 1 m/s 651 mmHg 60%
    09:00 +23°C° 0 mm 1 m/s 652 mmHg 55%
    10:00 +24°C° 0,1 mm 1 m/s 652 mmHg 52%
    11:00 +25°C° 0,1 mm 2 m/s 652 mmHg 49%
    12:00 +26°C° 0,1 mm 2 m/s 652 mmHg 46%
    13:00 +25°C° 0,5 mm 2 m/s 652 mmHg 49%
    14:00 +25°C° 0,5 mm 2 m/s 651 mmHg 51%
    15:00 +25°C° 0,5 mm 2 m/s 651 mmHg 53%
    16:00 +23°C° 0,6 mm 2 m/s 650 mmHg 62%
    17:00 +21°C° 0,6 mm 1 m/s 650 mmHg 71%
    18:00 +18°C° 0,6 mm 1 m/s 649 mmHg 80%
    19:00 +18°C° 0,2 mm 1 m/s 650 mmHg 77%
    20:00 +18°C° 0,2 mm 1 m/s 650 mmHg 73%
    21:00 +17°C° 0,2 mm 2 m/s 651 mmHg 70%
    22:00 +17°C° 0 mm 2 m/s 651 mmHg 67%
    23:00 +16°C° 0 mm 2 m/s 651 mmHg 63%

    Amanhã, 24 Outubro, Terça-feira

    Tempo Temperatura Precipitação Vento Pressão Humidade
    00:00 +16°C° 0 mm 2 m/s 651 mmHg 59%
    01:00 +16°C° 0 mm 2 m/s 651 mmHg 56%
    02:00 +16°C° 0 mm 2 m/s 651 mmHg 52%
    03:00 +15°C° 0 mm 2 m/s 651 mmHg 48%
    04:00 +15°C° 0 mm 2 m/s 651 mmHg 46%
    05:00 +15°C° 0 mm 2 m/s 651 mmHg 43%
    06:00 +15°C° 0 mm 2 m/s 651 mmHg 41%
    07:00 +17°C° 0 mm 2 m/s 652 mmHg 38%
    08:00 +20°C° 0 mm 1 m/s 653 mmHg 35%
    09:00 +22°C° 0 mm 1 m/s 654 mmHg 33%
    10:00 +23°C° 0 mm 1 m/s 654 mmHg 32%
    11:00 +24°C° 0 mm 2 m/s 654 mmHg 32%
    12:00 +25°C° 0 mm 2 m/s 654 mmHg 32%
    13:00 +25°C° 0 mm 2 m/s 653 mmHg 34%
    14:00 +25°C° 0 mm 2 m/s 653 mmHg 36%
    15:00 +24°C° 0 mm 2 m/s 652 mmHg 38%
    16:00 +21°C° 0 mm 2 m/s 651 mmHg 48%
    17:00 +19°C° 0 mm 1 m/s 651 mmHg 58%
    18:00 +16°C° 0 mm 1 m/s 650 mmHg 69%
    19:00 +16°C° 0 mm 1 m/s 651 mmHg 66%
    20:00 +15°C° 0 mm 1 m/s 651 mmHg 64%
    21:00 +15°C° 0 mm 2 m/s 652 mmHg 62%
    22:00 +15°C° 0 mm 2 m/s 652 mmHg 60%
    23:00 +14°C° 0 mm 2 m/s 652 mmHg 57%

    Depois de amanhã, 25 Outubro, Quarta-feira

    Tempo Temperatura Precipitação Vento Pressão Humidade
    00:00 +14°C° 0 mm 2 m/s 652 mmHg 55%
    01:00 +14°C° 0 mm 2 m/s 652 mmHg 53%
    02:00 +14°C° 0 mm 2 m/s 652 mmHg 51%
    03:00 +14°C° 0 mm 2 m/s 651 mmHg 49%
    04:00 +13°C° 0 mm 2 m/s 652 mmHg 47%
    05:00 +13°C° 0 mm 2 m/s 652 mmHg 46%
    06:00 +13°C° 0 mm 2 m/s 652 mmHg 44%
    07:00 +16°C° 0 mm 2 m/s 653 mmHg 43%
    08:00 +19°C° 0 mm 1 m/s 654 mmHg 41%
    09:00 +21°C° 0 mm 1 m/s 656 mmHg 39%
    10:00 +22°C° 0 mm 1 m/s 656 mmHg 38%
    11:00 +23°C° 0 mm 2 m/s 655 mmHg 38%
    12:00 +24°C° 0 mm 2 m/s 655 mmHg 38%
    13:00 +24°C° 0 mm 2 m/s 655 mmHg 40%
    14:00 +23°C° 0 mm 2 m/s 654 mmHg 43%
    15:00 +23°C° 0 mm 2 m/s 653 mmHg 46%
    16:00 +21°C° 0 mm 1 m/s 653 mmHg 55%
    17:00 +19°C° 0 mm 1 m/s 652 mmHg 64%
    18:00 +15°C° 0 mm 0 m/s 651 mmHg 73%
    19:00 +15°C° 0 mm 1 m/s 652 mmHg 73%
    20:00 +15°C° 0 mm 1 m/s 652 mmHg 73%
    21:00 +14°C° 0 mm 1 m/s 653 mmHg 73%
    22:00 +14°C° 0 mm 1 m/s 652 mmHg 72%
    23:00 +14°C° 0 mm 1 m/s 652 mmHg 72%

    26 Outubro, Quinta-feira

    Tempo Temperatura Precipitação Vento Pressão Humidade
    00:00 +14°C° 0 mm 2 m/s 652 mmHg 71%
    01:00 +14°C° 0 mm 2 m/s 652 mmHg 70%
    02:00 +14°C° 0 mm 2 m/s 652 mmHg 69%
    03:00 +14°C° 0 mm 2 m/s 652 mmHg 68%
    04:00 +13°C° 0 mm 2 m/s 652 mmHg 67%
    05:00 +13°C° 0 mm 2 m/s 652 mmHg 66%
    06:00 +13°C° 0 mm 2 m/s 652 mmHg 66%
    07:00 +16°C° 0 mm 1 m/s 654 mmHg 61%
    08:00 +19°C° 0 mm 1 m/s 655 mmHg 57%
    09:00 +22°C° 0 mm 1 m/s 656 mmHg 52%
    10:00 +23°C° 0 mm 1 m/s 656 mmHg 51%
    11:00 +24°C° 0 mm 2 m/s 656 mmHg 49%
    12:00 +24°C° 0 mm 2 m/s 655 mmHg 47%
    13:00 +24°C° 0 mm 2 m/s 655 mmHg 49%
    14:00 +24°C° 0 mm 2 m/s 654 mmHg 51%
    15:00 +24°C° 0 mm 2 m/s 653 mmHg 53%
    16:00 +21°C° 0 mm 2 m/s 653 mmHg 63%
    17:00 +19°C° 0 mm 1 m/s 652 mmHg 73%
    18:00 +16°C° 0 mm 1 m/s 652 mmHg 83%
    19:00 +16°C° 0 mm 1 m/s 652 mmHg 81%
    20:00 +15°C° 0 mm 1 m/s 653 mmHg 80%
    21:00 +15°C° 0 mm 1 m/s 653 mmHg 79%
    22:00 +15°C° 0 mm 1 m/s 653 mmHg 76%
    23:00 +15°C° 0 mm 1 m/s 653 mmHg 74%

    27 Outubro, Sexta-feira

    Tempo Temperatura Precipitação Vento Pressão Humidade
    00:00 +15°C° 0 mm 1 m/s 653 mmHg 72%
    01:00 +15°C° 0 mm 2 m/s 652 mmHg 69%
    02:00 +14°C° 0 mm 2 m/s 652 mmHg 67%
    03:00 +14°C° 0 mm 2 m/s 651 mmHg 64%
    04:00 +14°C° 0 mm 2 m/s 652 mmHg 62%
    05:00 +14°C° 0 mm 2 m/s 652 mmHg 60%
    06:00 +14°C° 0 mm 2 m/s 652 mmHg 58%
    07:00 +16°C° 0 mm 1 m/s 653 mmHg 54%
    08:00 +20°C° 0 mm 1 m/s 654 mmHg 49%
    09:00 +22°C° 0 mm 1 m/s 655 mmHg 45%
    10:00 +23°C° 0 mm 1 m/s 655 mmHg 43%
    11:00 +24°C° 0 mm 2 m/s 654 mmHg 41%
    12:00 +25°C° 0 mm 2 m/s 654 mmHg 39%
    13:00 +25°C° 0 mm 2 m/s 654 mmHg 42%
    14:00 +24°C° 0 mm 2 m/s 653 mmHg 44%
    15:00 +24°C° 0 mm 2 m/s 652 mmHg 47%
    16:00 +21°C° 0 mm 2 m/s 652 mmHg 58%
    17:00 +19°C° 0 mm 1 m/s 651 mmHg 68%
    18:00 +16°C° 0 mm 1 m/s 651 mmHg 79%
    19:00 +16°C° 0 mm 1 m/s 651 mmHg 76%
    20:00 +15°C° 0 mm 1 m/s 652 mmHg 73%
    21:00 +15°C° 0 mm 1 m/s 652 mmHg 70%
    22:00 +15°C° 0 mm 2 m/s 652 mmHg 67%
    23:00 +15°C° 0 mm 2 m/s 652 mmHg 64%

    28 Outubro, Sábado

    Tempo Temperatura Precipitação Vento Pressão Humidade
    00:00 +15°C° 0 mm 2 m/s 652 mmHg 60%
    01:00 +14°C° 0 mm 2 m/s 652 mmHg 57%
    02:00 +14°C° 0 mm 2 m/s 651 mmHg 55%
    03:00 +14°C° 0 mm 2 m/s 651 mmHg 52%
    04:00 +14°C° 0 mm 2 m/s 651 mmHg 50%
    05:00 +14°C° 0 mm 2 m/s 652 mmHg 48%
    06:00 +13°C° 0 mm 2 m/s 652 mmHg 46%
    07:00 +16°C° 0 mm 2 m/s 653 mmHg 43%
    08:00 +19°C° 0 mm 1 m/s 654 mmHg 40%
    09:00 +22°C° 0 mm 1 m/s 655 mmHg 38%
    10:00 +23°C° 0 mm 1 m/s 655 mmHg 37%
    11:00 +24°C° 0 mm 2 m/s 655 mmHg 36%
    12:00 +25°C° 0 mm 2 m/s 655 mmHg 35%
    13:00 +24°C° 0,1 mm 2 m/s 654 mmHg 38%
    14:00 +24°C° 0,1 mm 2 m/s 654 mmHg 41%
    15:00 +24°C° 0,1 mm 2 m/s 653 mmHg 44%
    16:00 +20°C° 0,3 mm 2 m/s 653 mmHg 54%
    17:00 +19°C° 0,3 mm 1 m/s 652 mmHg 64%
    18:00 +16°C° 0,3 mm 1 m/s 652 mmHg 73%
    19:00 +15°C° 0,2 mm 1 m/s 652 mmHg 70%
    20:00 +15°C° 0,2 mm 1 m/s 653 mmHg 67%
    21:00 +15°C° 0,2 mm 2 m/s 653 mmHg 63%
    22:00 +14°C° 0 mm 2 m/s 653 mmHg 60%
    23:00 +14°C° 0 mm 2 m/s 653 mmHg 57%
    Mostrar mais